Lapse_Rate
4.3 4.6 4.6 4.3 4.2 4.1 4.3 4.9 5.3 5.8 5.7 6.1 6.5 6.7 7.2 6.9 6.2 5.5 3.4 3.9 4.4 4.1 3.6 3.6 3.1 2.8 5.0 5.6 5.9 6.7 7.2 7.4 8.6 8.4 7.4 7.6 8.0 8.8 8.7 7.6 5.5 5.8 5.8
3.8 3.9 3.9 4.1 4.1 4.2 3.7 4.0 4.8 4.9 5.4 5.8 6.1 6.2 6.8 7.2 6.5 5.8 3.7 3.1 2.9 4.1 3.7 3.4 3.5 4.0 3.7 3.8 6.3 4.9 5.1 5.5 7.2 6.6 6.8 9.0 8.3 7.8 8.0 7.9 6.8 6.6 7.0
3.8 3.8 3.7 3.8 3.7 3.6 4.0 3.2 3.6 4.1 4.9 5.5 5.6 5.7 6.5 6.9 6.4 5.0 3.0 1.8 2.7 3.9 4.0 3.5 3.2 3.2 3.5 4.7 5.2 5.9 6.2 5.9 6.5 8.7 8.9 7.9 8.1 8.0 8.5 7.9 6.5 6.0 6.3
3.3 3.6 3.8 3.8 4.0 4.1 4.2 3.9 3.1 3.6 4.4 5.1 5.5 6.0 6.1 6.7 6.4 4.9 3.4 1.4 2.5 3.8 3.5 3.3 3.4 3.6 4.2 4.9 5.3 5.4 5.8 7.1 7.3 9.2 9.1 9.1 9.1 8.3 8.8 9.0 8.2 5.9 5.9
3.2 3.6 3.3 4.0 4.4 4.8 4.7 4.6 3.8 3.8 4.5 5.0 5.8 6.0 5.9 6.5 6.6 4.5 2.9 1.3 2.0 3.7 2.9 2.9 3.4 3.0 2.7 4.5 6.8 5.9 6.8 8.0 9.2 9.1 8.9 9.0 6.7 5.6 5.5 6.2 6.3 6.3 4.4
3.6 3.9 3.9 3.8 4.1 4.4 4.6 4.9 4.4 3.9 4.3 4.8 5.5 6.3 5.8 6.9 0.0 1.0 1.8 1.6 1.7 3.4 2.6 2.8 2.8 2.6 2.9 3.2 3.6 3.5 5.3 6.6 6.9 8.9 8.9 5.9 5.1 5.0 5.7 7.7 8.2 8.3 5.9
4.2 4.4 3.9 3.4 3.8 4.1 4.4 4.8 4.9 4.6 4.7 4.6 5.3 6.0 5.8 6.4 -0.9 -0.4 0.9 1.5 1.6 3.0 3.3 3.2 4.6 5.1 4.7 4.8 3.5 3.9 3.8 3.9 4.7 7.2 7.2 5.0 4.5 4.2 4.4 7.3 7.2 7.5 5.6
4.9 4.7 3.5 3.6 3.9 4.2 4.3 4.4 4.6 5.1 4.9 5.0 5.3 5.5 6.1 5.5 -2.0 -1.1 0.2 0.8 1.1 2.9 3.6 3.9 4.8 3.9 4.6 5.5 6.2 6.3 6.2 6.0 6.4 8.0 7.0 6.1 4.3 4.0 4.7 6.0 6.5 6.6 5.6
5.4 4.7 2.7 2.8 3.4 3.9 4.0 4.2 4.4 4.9 4.8 5.0 5.5 5.4 5.7 2.1 -3.1 -2.0 0.9 1.7 0.8 1.8 3.5 3.8 4.2 4.3 1.7 2.8 6.3 6.4 6.2 5.8 3.1 3.4 3.3 3.2 2.4 2.3 3.0 6.0 6.7 7.4 6.4
5.3 6.1 4.1 3.1 3.4 3.4 3.7 3.8 4.1 4.5 4.7 5.9 5.9 6.0 3.7 2.6 -3.7 -2.8 1.2 2.8 0.6 1.8 3.2 3.2 2.0 4.5 0.5 1.0 6.4 6.7 6.9 6.6 6.8 6.9 7.7 6.4 5.7 4.5 3.7 3.7 5.3 6.1 6.6
2.3 4.0 4.3 4.4 3.6 3.7 3.8 3.6 3.7 3.8 5.4 5.0 5.8 5.7 3.3 2.3 -1.3 -3.4 -1.1 2.7 1.0 1.5 4.8 4.2 4.7 -0.6 -0.4 -0.1 2.4 6.8 6.2 5.8 4.9 6.9 8.3 9.4 9.0 6.9 5.7 5.3 5.0 6.3 8.2
2.1 4.5 4.1 3.6 4.8 4.6 3.2 3.4 3.6 3.8 4.6 5.3 5.8 3.8 2.8 2.5 -1.3 -3.7 -2.2 0.4 -0.2 2.1 4.8 5.4 4.6 -1.7 -1.4 -1.0 1.4 0.5 0.6 4.1 7.5 7.8 9.1 9.3 9.1 7.3 6.1 5.5 5.1 5.4 5.0
3.9 4.6 3.8 3.8 4.5 5.4 4.1 3.9 4.3 4.1 5.6 5.6 4.8 3.9 2.4 2.3 2.2 -3.0 -3.4 -3.1 -1.6 2.3 4.3 4.4 -0.1 -2.5 -1.9 -0.8 0.0 -0.2 -0.0 7.7 8.2 9.1 9.2 9.2 9.1 8.2 6.8 6.6 6.3 6.5 5.3
3.4 3.4 3.4 3.8 3.7 6.0 8.4 7.5 6.1 6.0 6.7 7.4 4.8 3.4 2.4 2.0 3.6 1.7 0.3 -1.1 -1.3 1.5 -0.3 2.8 2.6 2.4 3.4 5.5 3.5 3.0 7.6 7.8 8.6 9.0 8.6 8.2 9.2 9.4 8.6 7.9 6.9 7.6 7.3
2.6 1.4 1.1 2.6 3.0 3.7 5.8 4.0 8.4 6.9 6.1 7.3 5.5 4.4 2.3 1.5 1.9 1.0 0.9 1.2 2.5 0.8 0.5 2.6 4.7 5.0 5.6 5.7 6.6 7.0 7.3 7.3 8.1 8.1 8.4 9.4 9.3 9.3 8.9 9.3 7.9 8.7 8.3
0.2 -0.2 -0.6 0.7 1.9 2.3 2.0 3.0 -4.4 -6.0 -6.5 -5.4 -0.9 5.1 5.3 2.4 -4.7 -5.1 -4.8 -4.6 -4.2 -4.0 2.1 3.2 5.0 5.3 5.8 6.1 6.6 7.1 7.3 6.7 7.8 8.6 8.5 9.4 9.1 9.2 9.0 8.4 7.8 8.4 8.7
0.5 1.6 2.3 2.2 2.5 3.2 2.1 4.5 2.2 -4.0 -7.6 -7.7 -7.7 -6.8 -5.9 -0.1 -5.3 -5.7 -6.1 -6.2 -5.7 -2.3 4.1 2.2 4.5 5.1 5.7 6.0 6.9 7.3 7.8 7.9 6.6 8.5 8.8 8.5 8.7 7.4 9.1 9.1 8.7 6.3 8.1
2.8 1.6 2.7 3.8 3.6 2.8 4.4 5.4 2.6 0.8 -0.8 -1.7 -5.2 -4.1 -5.8 -5.9 -3.2 -2.7 -4.1 -4.1 -2.4 0.9 1.1 1.7 2.3 4.4 5.8 5.8 6.5 7.3 7.4 6.3 7.5 7.7 8.7 8.2 9.3 8.7 8.9 9.2 9.3 9.2 8.8
2.9 2.8 3.2 3.6 3.4 2.7 2.6 1.8 2.2 0.5 -0.5 -1.1 -3.2 -5.2 -4.6 -4.4 -3.4 -4.4 -2.3 1.0 -0.1 0.6 1.9 1.9 1.6 3.4 5.6 5.8 6.0 6.5 6.8 7.1 7.3 7.4 7.7 8.0 8.1 9.3 8.8 9.2 8.5 5.5 7.1
2.7 1.1 1.2 3.1 3.4 3.7 3.4 3.7 3.9 3.9 3.7 4.2 3.9 1.4 -0.9 -1.2 -1.4 -1.7 -1.2 -0.5 -0.7 -0.7 1.9 3.6 1.2 2.1 4.8 6.0 5.7 5.9 6.6 6.1 6.1 7.4 7.7 7.8 7.7 9.4 9.0 8.5 8.6 7.6 9.0
2.1 2.8 1.3 2.1 2.4 2.8 2.3 2.5 3.1 3.9 4.5 3.9 3.2 0.5 -0.3 3.8 3.2 1.0 0.8 2.0 1.2 1.9 2.1 3.3 1.8 4.4 5.0 5.6 6.0 6.3 6.8 7.5 7.4 7.7 7.6 7.5 7.5 8.5 9.2 7.9 8.0 9.3 9.3
1.4 0.5 1.6 1.7 1.9 1.5 1.7 1.6 1.9 1.6 1.2 1.6 2.3 1.9 -1.4 5.1 5.0 2.7 2.2 1.9 1.9 0.9 1.5 1.8 3.5 6.2 6.1 6.6 5.8 6.9 7.1 7.4 7.5 7.7 7.6 7.7 7.6 8.5 8.2 9.1 7.7 7.8 8.2
1.7 1.4 1.0 1.4 1.5 1.0 0.7 0.2 0.2 1.0 0.9 0.9 0.8 0.8 1.1 2.6 3.4 2.6 2.7 2.7 2.6 1.9 1.8 2.6 3.4 4.0 3.9 4.1 4.8 4.2 6.3 7.5 7.3 7.5 7.7 7.9 7.4 7.6 7.7 8.0 9.1 7.4 7.4
1.5 1.3 1.6 1.2 0.6 0.4 -0.1 -0.3 -0.6 -1.2 -0.1 0.1 0.2 -0.2 -0.3 -0.2 -0.5 -0.8 0.5 3.1 2.9 2.6 2.4 2.9 3.7 4.4 3.1 2.6 2.4 4.4 4.8 6.3 7.0 6.7 7.3 7.9 8.0 5.4 7.5 7.9 8.1 8.8 8.2
2.3 1.2 0.9 0.9 0.5 -0.0 0.1 -0.8 -1.0 -1.2 -1.6 -1.7 -1.7 -1.3 -1.6 -1.2 -0.8 -0.6 -0.6 -0.8 -0.7 -1.7 -2.2 -2.4 -1.1 0.2 -1.3 -3.0 -3.5 -4.8 -3.7 0.5 3.5 4.9 5.4 7.2 7.7 6.8 7.5 7.5 7.2 8.3 8.5
4.6 2.4 1.1 0.6 0.5 0.3 -0.6 -0.7 -0.9 -1.1 -1.3 -2.0 -2.3 -2.5 -2.8 -2.5 -2.7 -2.5 -2.0 -1.5 -1.5 -2.2 -2.7 -4.2 -3.1 -3.9 -3.6 -3.1 -5.0 -7.0 -6.3 -2.9 -0.1 2.7 5.0 6.3 6.9 7.1 7.7 7.8 7.0 7.4 7.0
Wind_Speed
16 15 14 12 13 11 10 10 9 7 6 4 4 3 3 2 5 5 5 6 5 4 4 4 5 3 4 4 4 4 4 4 3 2 1 3 1 2 4 3 3 4 7
15 14 14 13 12 13 13 12 10 10 7 7 6 5 4 4 6 7 8 6 4 5 5 5 5 4 6 5 5 6 6 5 3 2 3 2 2 2 2 1 2 2 3
15 16 14 13 13 13 13 12 11 11 10 9 7 7 7 6 6 8 9 7 5 5 5 5 5 4 5 6 6 6 6 5 4 4 4 3 1 3 2 1 3 4 4
17 16 15 16 15 14 13 12 11 11 10 10 9 8 7 7 7 9 10 8 7 6 5 5 6 6 6 7 7 7 6 6 6 6 5 5 4 3 3 3 3 3 3
15 16 17 15 14 13 13 12 12 11 10 10 10 9 7 7 7 10 10 9 7 8 7 7 7 8 8 7 6 7 7 7 7 7 7 7 6 5 5 4 1 4 2
15 17 14 14 13 13 12 11 10 10 10 10 10 9 9 7 13 13 14 11 8 10 9 9 10 11 11 12 14 15 11 8 9 7 7 6 6 5 4 4 3 2 1
13 13 13 13 13 13 12 11 11 11 10 11 11 10 10 7 14 15 13 11 9 9 11 11 10 8 9 11 12 13 13 13 10 7 8 6 5 6 4 3 2 3 2
13 13 12 13 13 12 12 12 11 10 11 10 11 11 9 7 15 15 14 12 8 9 11 11 10 11 8 9 7 7 7 8 8 7 8 9 8 9 5 3 2 3 2
13 13 13 13 12 12 14 13 11 10 9 10 9 11 10 7 14 16 13 12 9 8 10 10 10 10 10 8 6 6 6 6 8 9 13 10 12 17 16 6 4 1 2
10 11 10 11 12 13 13 12 11 11 10 8 9 10 10 10 14 17 13 9 10 7 9 9 7 8 10 8 5 4 4 5 3 3 6 9 14 14 17 12 7 5 3
4 4 6 9 11 11 10 9 9 9 9 10 10 9 10 12 15 16 13 11 9 8 9 9 8 8 8 7 4 2 2 6 5 2 3 5 8 10 10 14 13 7 6
6 4 3 6 8 8 10 9 10 10 10 10 11 8 7 10 14 16 15 10 13 9 10 9 9 13 11 8 5 7 6 6 3 2 2 5 7 8 7 12 13 13 15
6 7 10 3 6 9 9 10 9 11 10 11 10 8 7 7 9 12 13 14 15 9 6 9 13 13 9 6 5 8 9 3 3 3 4 5 6 7 10 9 11 14 20
6 6 8 9 12 8 9 8 9 10 10 10 10 9 8 8 8 10 9 7 9 7 10 9 8 8 4 6 7 7 3 2 2 4 6 5 5 6 7 6 7 8 10
8 7 7 1 8 11 13 5 10 10 11 11 11 10 10 9 12 14 15 11 10 10 9 9 9 8 8 7 6 5 4 5 4 4 5 6 5 6 7 7 7 7 8
5 11 7 2 3 9 11 6 7 10 4 8 2 9 11 8 17 18 14 11 14 18 8 9 9 10 9 8 8 6 6 5 5 4 5 6 6 6 7 7 7 6 7
13 9 5 7 7 8 13 12 7 4 15 17 12 10 14 2 13 18 17 14 17 14 9 7 8 10 9 9 8 7 8 6 6 5 5 6 6 7 6 6 7 6 5
7 9 5 3 2 1 20 15 7 4 5 4 9 8 17 23 17 13 9 11 7 3 3 6 6 8 9 9 9 8 7 8 7 6 5 6 7 6 7 7 5 6 7
5 6 6 3 2 3 3 4 3 5 4 5 6 9 8 24 22 23 15 6 8 6 6 8 6 8 9 9 9 8 8 8 8 8 7 6 7 7 7 6 6 3 3
5 9 7 5 4 4 5 5 4 3 4 5 7 7 3 3 1 11 11 14 13 11 9 9 7 7 9 9 9 8 8 8 9 7 7 6 6 6 8 7 7 8 6
5 5 8 5 6 6 6 6 6 6 5 5 5 2 7 4 1 3 5 7 7 6 7 6 5 8 8 9 9 9 9 9 9 8 8 8 7 7 7 8 7 7 7
5 5 5 6 6 7 6 6 6 6 7 6 5 5 7 1 2 5 6 6 5 5 5 4 5 8 8 10 10 10 10 10 9 9 9 9 8 7 7 8 9 8 8
6 7 7 7 7 8 8 8 7 7 6 6 5 5 6 5 5 5 6 5 5 6 4 2 5 5 7 8 12 10 10 10 10 10 10 9 9 9 8 8 8 9 10
8 8 9 9 9 9 8 8 8 9 8 7 7 7 7 6 7 8 6 4 6 7 6 6 6 4 5 6 4 8 11 10 13 16 16 11 10 10 9 9 9 10 10
8 8 9 9 9 9 9 9 9 8 8 9 8 8 7 7 8 8 8 8 8 9 11 10 13 9 14 13 11 10 10 2 11 14 17 14 13 14 11 10 10 9 10
11 10 9 8 9 9 8 8 8 9 10 9 9 9 9 9 9 10 9 10 8 9 11 15 12 15 15 13 13 15 10 2 11 16 15 13 11 11 11 12 15 11 12
Wind_Direction
205 206 210 209 205 209 222 226 224 236 235 236 245 256 257 230 158 167 147 142 132 125 110 92 72 44 48 42 43 31 23 355 325 109 304 36 1 25 105 104 65 50 68
201 200 207 206 206 206 215 219 221 224 231 243 242 242 250 241 180 171 157 141 161 150 123 104 84 71 67 46 47 38 36 27 348 347 32 22 28 19 22 105 131 105 79
200 203 203 206 206 211 212 217 218 222 228 240 244 237 241 230 192 164 153 150 151 142 137 123 108 94 72 67 49 46 44 38 32 31 44 33 10 15 335 116 82 137 125
198 201 203 207 211 215 215 215 215 219 224 232 232 226 222 213 184 164 154 143 141 133 128 114 111 102 95 83 73 67 59 58 47 42 42 33 12 15 321 341 58 81 114
198 201 205 208 210 214 219 212 213 214 215 220 225 215 211 205 181 163 152 141 143 134 120 118 114 107 86 58 87 70 67 58 51 42 38 34 16 3 2 335 40 114 88
203 211 209 201 205 209 218 211 207 213 211 205 219 216 206 211 137 155 150 149 149 145 138 132 130 128 109 94 86 68 52 59 52 34 39 31 7 351 341 348 15 80 92
212 214 209 200 201 206 210 208 204 211 207 205 210 212 209 201 153 150 145 149 149 152 150 150 151 137 137 119 106 96 76 66 52 30 39 32 6 351 337 304 43 64 76
218 214 201 200 203 205 207 211 206 210 208 204 204 205 205 182 160 145 142 142 141 161 161 160 150 155 157 147 134 113 87 65 51 39 43 42 34 3 351 342 341 86 106
217 217 203 194 200 202 207 208 206 206 208 208 204 198 194 165 155 149 149 153 142 156 164 166 157 161 164 161 150 138 128 114 89 78 76 71 61 37 24 32 34 161 98
215 228 221 204 195 205 211 203 203 206 206 207 206 196 176 163 165 161 159 153 146 159 166 167 175 172 168 186 168 162 153 147 148 88 74 65 49 59 46 45 32 40 60
358 309 223 225 217 210 213 207 204 203 207 201 201 186 177 166 175 173 169 161 155 161 171 176 174 166 184 192 254 150 70 147 150 138 69 60 52 54 42 47 40 35 48
72 334 254 224 236 211 211 206 203 192 196 197 195 177 171 173 174 186 174 159 158 164 175 176 171 168 179 186 211 126 152 173 147 129 63 48 50 56 54 58 51 62 66
70 50 35 329 267 255 220 210 203 202 196 194 191 177 172 178 181 170 172 158 162 162 177 161 144 166 163 187 145 159 183 163 128 99 74 61 59 68 82 76 62 86 66
233 65 42 56 11 333 284 243 221 209 208 197 187 186 171 178 180 178 180 170 162 151 129 140 150 146 139 137 145 171 181 147 100 101 93 86 91 86 91 80 78 81 81
83 84 24 48 43 348 319 321 255 215 209 201 191 184 177 187 195 177 176 177 184 165 141 145 159 166 168 173 176 169 163 160 135 131 114 104 98 95 91 90 82 87 89
27 41 19 197 35 332 340 288 350 335 66 41 252 202 197 218 148 164 170 144 133 144 151 168 177 173 177 177 177 172 162 175 145 148 120 110 114 111 112 108 107 87 96
8 351 1 349 59 348 306 302 239 52 69 53 47 58 43 297 167 164 150 136 149 152 171 186 181 181 175 178 177 172 160 164 154 154 138 119 123 118 141 124 122 116 98
350 311 311 285 197 230 258 222 192 162 120 105 43 19 94 91 80 63 89 104 148 230 148 175 187 179 178 175 174 173 153 151 167 154 158 134 135 140 142 141 145 141 138
352 338 302 282 190 244 314 16 71 114 131 109 110 88 133 131 136 137 149 199 192 202 201 182 176 191 177 176 174 175 166 159 162 165 161 161 143 154 147 148 133 103 147
8 348 342 351 9 27 32 38 44 107 134 121 109 108 114 48 1 156 189 184 189 179 210 188 175 189 179 176 170 172 171 157 157 174 167 172 160 160 156 158 154 159 166
9 21 354 5 16 27 36 39 34 32 46 55 67 77 205 235 2 123 189 203 187 166 202 176 160 196 178 173 169 177 176 172 170 173 175 176 176 164 168 159 162 168 159
347 28 31 35 40 39 39 38 39 46 48 42 26 0 331 53 106 119 137 122 143 138 154 184 201 198 188 175 169 182 181 177 176 176 180 181 182 179 170 172 162 167 166
25 31 39 43 44 45 53 48 43 43 44 40 26 17 23 27 47 88 99 118 138 128 123 219 176 191 174 178 164 172 183 185 183 183 183 189 185 183 183 176 178 169 176
48 42 49 48 42 48 48 53 48 41 48 52 44 33 36 30 32 40 41 92 109 109 100 75 19 90 130 135 116 170 189 194 191 188 191 190 193 182 185 185 185 183 179
44 56 53 54 54 47 45 44 54 45 47 50 48 46 39 38 44 37 41 51 51 57 51 60 56 47 63 53 40 9 336 253 196 194 194 200 197 186 195 190 183 188 188
52 50 56 54 58 58 52 49 47 55 46 41 41 39 46 45 47 46 39 51 52 58 58 55 62 56 56 46 23 8 5 239 217 207 202 202 200 190 194 200 191 185 189